DW8661 Weather Reports


Display with metric or nautical units.
time (UTC)temp
F
wind
direction
speed
MPH
gust
MPH
rain 1hr
in
rain 24hr
in
rain mn
in
humidity
%
barometer
mb
20260506233101 57 41 4.0 11.0 0.00 0.00 0.00 48 1012.1
20260506231601 58 8 4.0 9.0 0.00 0.00 0.00 46 1012.0
20260506230002 59 34 5.0 8.0 0.00 0.00 0.00 44 1012.0
20260506224501 59 22 1.0 5.0 0.00 0.00 0.00 40 1012.0
20260506223001 60 38 3.0 5.0 0.00 0.00 0.00 38 1012.0
20260506221501 61 113 2.0 5.0 0.00 0.00 0.00 36 1011.9
20260506220002 61 63 1.0 4.0 0.00 0.00 0.00 35 1012.0
20260506214600 61 71 2.0 5.0 0.00 0.00 0.00 36 1012.1
20260506214502 61 56 2.0 5.0 0.00 0.00 0.00 36 1012.1
20260506213140 61 72 1.0 4.0 0.00 0.00 0.00 37 1012.1
20260506211632 61 50 0.0 2.0 0.00 0.00 0.00 36 1012.1
20260506211502 61 79 0.0 2.0 0.00 0.00 0.00 36 1012.1
20260506210103 61 57 0.0 2.0 0.00 0.00 0.00 36 1012.1
20260506210002 61 58 0.0 2.0 0.00 0.00 0.00 36 1012.1
20260506204502 62 25 0.0 1.0 0.00 0.00 0.00 35 1012.0
20260506203002 62 76 0.0 1.0 0.00 0.00 0.00 33 1011.9
20260506201503 63 1 1.0 3.0 0.00 0.00 0.00 31 1011.9
20260506200005 63 25 0.0 3.0 0.00 0.00 0.00 31 1011.9
20260506194502 63 7 1.0 4.0 0.00 0.00 0.00 30 1011.8
20260506193001 63 19 1.0 3.0 0.00 0.00 0.00 30 1011.7
20260506191502 63 323 0.0 2.0 0.00 0.00 0.00 32 1011.7
20260506190002 63 194 0.0 1.0 0.00 0.00 0.00 31 1011.6
20260506184609 64 208 1.0 3.0 0.00 0.00 0.00 30 1011.5
20260506184501 64 205 1.0 3.0 0.00 0.00 0.00 30 1011.6
20260506183105 64 213 0.0 4.0 0.00 0.00 0.00 28 1011.6
20260506183001 64 213 0.0 4.0 0.00 0.00 0.00 29 1011.5
20260506181600 65 205 0.0 4.0 0.00 0.00 0.00 28 1011.5
20260506180100 65 189 2.0 7.0 0.00 0.00 0.00 29 1011.5
20260506180000 65 105 3.0 7.0 0.00 0.00 0.00 28 1011.6
20260506174503 65 320 1.0 6.0 0.00 0.00 0.00 29 1011.6
20260506173109 66 122 4.0 11.0 0.00 0.00 0.00 29 1011.7
20260506171501 66 63 3.0 8.0 0.00 0.00 0.00 29 1011.7
20260506170116 68 77 1.0 10.0 0.00 0.00 0.00 28 1011.7
20260506164603 69 122 4.0 11.0 0.00 0.00 0.00 28 1011.8
20260506164502 69 130 5.0 11.0 0.00 0.00 0.00 27 1011.8
20260506163112 70 28 0.0 4.0 0.00 0.00 0.00 28 1011.9
20260506161601 69 193 3.0 6.0 0.00 0.00 0.00 28 1011.9
20260506160113 68 200 2.0 9.0 0.00 0.00 0.00 29 1012.0
20260506160002 68 107 2.0 9.0 0.00 0.00 0.00 29 1012.0
20260506154606 67 110 5.0 10.0 0.00 0.00 0.00 29 1012.1
20260506153104 67 354 2.0 7.0 0.00 0.00 0.00 29 1012.2
20260506151607 67 233 3.0 9.0 0.00 0.00 0.00 28 1012.3
20260506150004 68 112 1.0 7.0 0.00 0.00 0.00 30 1012.4
20260506144608 67 101 2.0 6.0 0.00 0.00 0.00 29 1012.8
20260506143001 67 137 4.0 9.0 0.00 0.00 0.00 31 1012.9
20260506141601 66 326 1.0 5.0 0.00 0.00 0.00 33 1013.1
20260506140106 67 226 2.0 8.0 0.00 0.00 0.00 33 1013.4
20260506140002 67 212 3.0 8.0 0.00 0.00 0.00 33 1013.4
20260506134600 67 146 0.0 4.0 0.00 0.00 0.00 33 1013.5
20260506133103 67 211 2.0 6.0 0.00 0.00 0.00 35 1013.7
20260506131603 65 160 4.0 10.0 0.00 0.00 0.00 35 1013.8
20260506130009 65 136 3.0 10.0 0.00 0.00 0.00 37 1013.9
20260506124501 64 203 1.0 11.0 0.00 0.00 0.00 39 1014.1
20260506123100 64 212 4.0 9.0 0.00 0.00 0.00 38 1014.3
20260506123001 64 195 3.0 8.0 0.00 0.00 0.00 37 1014.3
20260506121600 63 162 3.0 9.0 0.00 0.00 0.00 38 1014.4
20260506121503 63 208 1.0 9.0 0.00 0.00 0.00 40 1014.4
20260506120100 63 158 0.0 6.0 0.00 0.00 0.00 39 1014.5
20260506120003 63 176 1.0 6.0 0.00 0.00 0.00 40 1014.5
20260506114601 63 149 1.0 7.0 0.00 0.00 0.00 41 1014.7
20260506113101 62 160 2.0 6.0 0.00 0.00 0.00 42 1014.8
20260506111603 61 190 1.0 8.0 0.00 0.00 0.00 44 1014.9
20260506111501 61 37 1.0 8.0 0.00 0.00 0.00 44 1014.9
20260506110100 62 323 2.0 5.0 0.00 0.00 0.00 43 1014.9
20260506110005 62 270 1.0 5.0 0.00 0.00 0.00 44 1014.9
20260506104501 62 46 0.0 4.0 0.00 0.00 0.00 45 1015.0
20260506103127 60 134 2.0 6.0 0.00 0.00 0.00 44 1015.2
20260506101600 59 156 4.0 8.0 0.00 0.00 0.00 46 1015.3
20260506100002 59 94 3.0 6.0 0.00 0.00 0.00 49 1015.3
20260506094502 57 186 2.0 6.0 0.00 0.00 0.00 53 1015.4
20260506093100 56 134 1.0 11.0 0.00 0.00 0.00 53 1015.3
20260506093001 56 317 3.0 11.0 0.00 0.00 0.00 53 1015.4
20260506091607 55 22 6.0 10.0 0.00 0.00 0.00 52 1015.4
20260506090103 55 45 4.0 11.0 0.00 0.00 0.00 55 1015.4
20260506084616 54 63 5.0 11.0 0.00 0.00 0.00 56 1015.4
20260506083100 54 59 5.0 9.0 0.00 0.00 0.00 56 1015.3
20260506081607 54 10 3.0 9.0 0.00 0.00 0.00 57 1015.4
20260506073001 53 56 1.0 6.0 0.00 0.00 0.00 60 1015.4
20260506071501 53 68 0.0 4.0 0.00 0.00 0.00 61 1015.4
20260506061603 50 103 1.0 5.0 0.00 0.00 0.00 65 1015.0
20260506050113 48 21 2.0 4.0 0.00 0.00 0.00 70 1014.5
20260506044601 48 4 2.0 4.0 0.00 0.00 0.00 70 1014.3
20260506043106 48 281 1.0 3.0 0.00 0.00 0.00 69 1014.3
20260506041558 49 30 1.0 4.0 0.00 0.00 0.00 67 1014.4
20260506040107 49 52 1.0 4.0 0.00 0.00 0.00 67 1014.4
20260506040002 49 34 0.0 3.0 0.00 0.00 0.00 67 1014.4
20260506034606 49 52 0.0 2.0 0.00 0.00 0.00 67 1014.5
20260506033100 49 43 0.0 3.0 0.00 0.00 0.00 67 1014.5
20260506031559 50 30 1.0 3.0 0.00 0.00 0.00 66 1014.5
20260506030058 50 96 0.0 1.0 0.00 0.00 0.00 64 1014.5
20260506024601 51 46 1.0 3.0 0.00 0.00 0.00 63 1014.5
20260506023100 51 53 1.0 5.0 0.00 0.00 0.00 63 1014.6
20260506021606 51 13 0.0 4.0 0.00 0.00 0.00 62 1014.7
20260506020059 51 57 0.0 5.0 0.00 0.00 0.00 62 1014.5
20260506014600 51 63 1.0 4.0 0.00 0.00 0.00 62 1014.6
20260506013107 51 89 1.0 3.0 0.00 0.00 0.00 62 1014.7
20260506011607 51 104 0.0 6.0 0.00 0.00 0.00 61 1014.8
20260506010058 51 157 1.0 2.0 0.00 0.00 0.00 62 1015.0
20260506004601 51 216 0.0 1.0 0.00 0.00 0.00 62 1015.1
20260506003059 52 188 0.0 4.0 0.00 0.00 0.00 62 1015.1
20260506001558 52 92 2.0 6.0 0.00 0.00 0.00 61 1015.1
20260506000058 52 39 5.0 9.0 0.00 0.00 0.00 61 1015.2
20260505234608 52 72 1.0 3.0 0.00 0.00 0.00 59 1015.2